RH
36 45 47 33 20 15 15 20 27 31 34 43 31 4 2 4 3 5 2 2 1 1 2 1 2 2 3 4 4 4 4 4 4 6 5 4 4 4 5 5 5 5 5 5 5 4 3 4 4 4 5 5 8 8 8 8 10 11 11 16 17 11 11 13 14 14 14 15 16 16 16 16 15 16 17 20 22 20 20 21 21 21 22 23 24 25 26 26
34 46 48 31 21 18 15 19 24 22 15 19 14 2 3 4 4 5 3 2 1 2 2 2 3 3 4 4 4 5 4 4 5 5 4 4 5 5 5 5 5 5 5 5 5 5 4 5 5 5 7 8 8 8 8 10 11 11 11 11 11 11 13 16 16 15 15 15 16 16 14 12 13 16 16 21 23 20 21 22 20 21 21 21 20 22 23 24
35 46 49 34 24 20 16 22 30 21 5 5 5 3 5 4 4 4 3 2 1 2 2 3 4 4 5 4 5 4 3 5 5 5 4 5 5 5 6 5 6 6 6 6 5 5 5 5 6 6 9 9 8 8 9 11 12 11 11 10 10 13 14 16 16 15 15 15 15 14 12 10 12 13 15 18 22 21 20 19 18 18 17 16 16 17 19 19
42 44 50 42 29 24 20 22 33 24 6 4 4 4 5 3 3 3 3 3 2 2 3 4 4 5 6 6 6 5 4 5 5 5 5 5 6 6 6 6 6 6 6 6 5 5 5 5 6 7 8 8 8 8 8 10 13 11 10 11 13 13 14 15 15 15 15 13 13 12 10 9 9 11 15 18 20 19 17 15 15 13 12 13 12 13 13 13
47 45 52 48 30 25 24 24 30 20 7 5 5 5 4 3 2 2 3 2 2 2 3 4 5 6 6 7 8 8 7 5 5 5 5 6 6 6 6 6 6 6 6 6 5 5 6 6 7 7 8 8 8 9 8 8 11 11 11 13 14 13 13 14 13 13 12 11 12 10 9 9 8 10 14 16 17 16 15 14 12 10 11 13 12 12 14 15
50 49 52 46 30 27 29 28 27 14 7 7 5 5 3 2 2 2 2 2 2 2 3 4 5 6 5 6 6 8 8 5 6 5 6 6 6 7 6 6 6 5 5 5 5 5 6 6 7 7 7 9 9 9 10 9 9 11 12 13 13 12 12 13 12 12 12 11 10 8 8 7 8 10 12 14 14 13 13 12 11 11 12 16 16 16 19 21
50 52 49 37 25 27 31 31 25 10 7 7 4 5 2 2 2 2 2 2 3 3 4 5 5 6 5 5 5 6 6 5 6 6 6 6 6 7 5 6 6 5 5 5 6 6 7 7 7 7 7 8 9 9 10 10 9 10 11 12 13 12 11 14 14 14 13 11 9 8 8 7 8 10 11 12 12 12 12 11 12 14 15 18 20 20 23 26
49 50 41 31 22 18 20 27 23 9 5 6 4 4 1 2 2 1 3 2 4 4 5 5 5 6 5 5 5 6 5 5 6 6 6 6 6 6 5 6 6 5 6 6 6 7 8 8 7 7 8 8 9 10 10 10 11 10 11 11 13 13 12 15 18 16 14 11 9 8 7 7 8 10 11 12 12 12 13 13 15 17 18 20 22 24 26 30
44 45 38 33 27 15 14 24 23 9 6 6 3 3 2 2 2 2 2 2 4 5 5 6 5 6 6 5 5 6 6 6 6 6 6 6 6 5 5 6 5 6 6 6 7 7 8 7 7 8 8 8 9 11 11 11 11 11 11 11 15 16 12 15 18 17 15 13 10 7 7 8 9 10 12 12 11 14 16 17 19 20 21 23 24 26 30 35
33 39 38 35 32 22 15 18 16 8 6 6 3 3 2 2 2 2 2 3 4 5 6 6 5 6 6 5 5 6 6 6 6 6 6 5 5 6 6 6 6 6 6 7 7 7 8 7 7 8 8 9 10 11 11 10 10 12 14 12 15 17 14 15 17 17 16 14 10 8 8 9 10 11 11 12 13 16 18 20 21 22 23 25 27 29 33 37
24 32 33 34 37 30 19 12 9 8 6 4 3 3 2 2 2 2 3 4 5 6 6 6 6 5 5 6 6 5 6 7 7 6 6 5 6 6 6 6 7 7 7 8 7 7 8 7 7 8 9 10 10 11 10 10 10 13 16 15 15 16 18 17 18 20 18 14 11 8 8 10 10 11 12 14 16 18 20 20 22 23 24 26 29 31 34 38
22 30 26 31 35 30 30 19 6 6 5 3 3 2 2 2 2 4 4 4 6 7 7 6 6 5 6 7 6 6 6 7 6 6 5 6 6 6 6 7 7 8 7 8 8 8 8 7 8 8 9 10 10 11 11 10 12 14 16 17 16 17 22 20 19 22 19 15 12 9 10 11 11 13 14 15 18 19 20 21 22 23 26 27 29 32 34 37
28 30 19 26 28 30 40 23 4 5 4 2 3 2 3 3 4 5 5 6 7 7 7 6 6 6 6 7 6 6 7 6 6 6 6 6 7 7 7 8 8 8 8 8 8 8 8 8 9 9 9 9 10 12 11 11 12 13 15 14 12 16 21 21 21 21 18 16 13 11 12 11 11 14 15 17 19 20 21 22 22 25 27 28 30 32 34 36
29 30 20 23 23 25 26 11 3 5 3 2 3 2 4 4 6 6 6 7 7 7 6 6 6 6 7 6 6 6 6 5 6 6 7 7 7 7 8 8 8 8 8 8 9 9 9 9 10 9 9 9 11 12 11 12 12 12 15 13 11 15 18 21 24 20 15 15 13 12 12 11 12 14 16 19 21 22 23 22 23 27 29 30 32 32 34 35
28 41 33 18 12 11 9 5 5 4 2 4 3 3 5 6 7 7 7 7 6 7 6 6 6 6 6 6 6 6 6 6 6 7 7 7 8 8 8 8 8 9 8 9 9 9 9 10 10 9 10 10 10 12 12 12 11 11 15 14 12 15 16 20 23 17 13 13 12 14 13 12 14 15 18 22 23 23 23 23 26 29 31 32 33 34 35 35
26 44 32 8 6 7 4 4 4 3 4 4 3 4 6 7 7 7 7 7 6 6 6 6 6 6 6 6 6 6 6 6 7 7 7 8 9 8 9 9 8 9 9 9 9 9 9 10 10 10 11 12 11 13 14 12 11 11 13 15 16 16 15 17 19 16 13 11 12 15 15 14 14 16 21 24 24 24 23 24 27 30 33 34 35 37 37 38
18 34 27 9 6 5 3 4 4 6 6 6 6 5 6 8 7 7 7 7 6 6 7 6 6 7 6 6 7 6 6 7 7 7 8 8 9 8 9 9 9 9 9 9 9 9 10 9 10 10 11 12 12 13 15 14 13 12 12 15 17 16 15 16 16 16 15 13 14 16 18 17 16 19 23 25 25 25 24 25 28 32 35 37 38 40 41 41
14 22 22 13 5 3 4 5 6 8 8 9 9 7 8 9 7 8 8 8 8 7 7 8 10 10 6 6 6 6 7 7 7 8 8 9 9 9 9 9 9 9 9 10 11 9 10 11 10 10 10 11 12 12 14 16 17 16 15 16 17 17 16 16 16 17 17 16 16 18 22 20 18 23 25 25 27 26 25 27 29 33 36 38 40 41 43 42
12 9 10 8 4 5 5 6 7 8 9 10 9 9 9 9 8 9 8 9 8 8 7 8 10 9 6 7 6 6 7 8 8 9 9 9 9 10 10 10 9 10 10 10 10 9 10 11 10 10 11 13 14 14 15 17 18 19 19 20 22 20 16 16 16 17 20 17 16 22 25 22 23 26 25 25 28 27 26 28 30 33 36 38 39 41 42 43
9 4 5 6 5 7 7 8 9 9 9 9 9 9 8 8 9 8 8 8 7 7 7 6 7 6 6 6 6 7 8 8 9 9 9 9 10 11 10 9 10 10 10 10 10 10 11 11 11 12 15 16 16 16 16 17 18 19 22 24 25 21 16 16 15 17 23 20 18 25 26 24 28 28 26 26 27 26 26 29 32 34 37 38 39 40 42 46
7 4 5 6 6 9 10 11 10 11 11 10 10 9 8 8 8 7 8 7 6 6 7 7 6 6 6 6 6 7 8 9 9 9 10 9 10 11 10 10 11 10 10 10 11 12 12 11 13 15 16 16 17 18 18 18 18 19 22 25 25 21 15 15 17 19 24 23 22 27 28 28 32 30 26 27 26 26 27 30 33 35 37 38 39 41 44 52
6 4 6 7 9 11 11 11 11 11 11 10 10 8 8 8 7 8 7 6 7 7 7 7 7 7 7 7 7 8 9 10 10 10 10 10 11 11 10 11 11 10 11 11 12 13 12 12 15 16 16 17 18 18 19 19 19 20 22 24 24 22 17 15 17 19 23 25 24 28 32 34 33 29 26 27 26 26 28 31 34 36 37 39 40 43 47 55
5 5 8 9 11 12 12 12 11 11 11 10 9 8 8 7 8 8 7 7 7 7 8 8 8 8 7 7 8 9 10 10 10 10 10 11 11 11 11 11 11 12 12 13 13 13 13 15 16 16 16 18 18 19 20 19 20 21 22 23 22 21 21 19 17 18 23 26 27 32 38 36 30 27 26 27 26 26 29 32 33 35 37 40 42 44 47 51
6 7 10 10 11 12 11 12 11 11 10 9 9 8 8 8 8 9 8 8 8 8 8 8 8 8 7 8 8 10 10 10 10 11 11 11 11 12 12 12 12 12 13 15 14 14 16 17 17 17 17 18 19 20 20 20 21 22 22 23 21 20 22 22 20 20 22 26 31 36 41 34 26 27 26 26 26 27 30 32 34 36 38 40 42 43 45 45
6 9 10 10 12 12 11 12 11 11 10 10 9 8 8 8 8 9 10 9 9 10 9 9 8 8 8 8 8 10 10 10 11 11 11 12 12 13 12 13 13 13 14 15 16 16 17 18 18 18 18 19 20 20 21 22 22 23 23 23 21 20 20 20 22 23 24 28 33 41 48 40 27 26 27 27 27 27 31 33 34 37 38 38 40 41 42 40
8 10 10 11 12 11 11 11 10 11 10 10 9 9 9 9 9 11 11 11 10 10 10 10 9 8 9 9 8 11 11 10 11 11 12 13 12 13 13 13 14 14 14 17 19 17 17 20 19 19 20 20 21 21 22 23 23 24 25 23 21 20 20 19 22 27 29 31 33 40 48 42 29 26 27 27 27 28 31 33 35 36 37 37 39 39 39 39
9 10 10 11 10 10 10 9 9 9 9 10 9 9 10 9 11 12 15 19 15 9 8 9 9 8 8 9 9 10 11 11 11 12 13 13 13 14 14 14 15 15 15 17 20 18 18 20 20 22 22 21 22 22 23 24 24 26 26 25 23 20 19 20 23 28 32 34 36 38 39 36 31 27 27 27 27 30 31 33 35 35 37 38 38 39 39 40
10 10 11 10 8 9 9 8 8 7 8 9 8 9 9 9 11 11 17 25 17 8 8 8 7 8 8 9 9 10 11 11 11 12 13 13 14 14 15 15 16 17 17 17 18 18 19 20 21 23 22 22 23 23 25 26 26 28 28 27 25 22 22 23 25 29 34 41 40 35 34 37 37 29 28 29 28 31 33 33 35 34 37 39 37 38 39 40
9 10 9 8 8 8 8 8 7 6 7 8 8 9 8 8 11 11 16 21 14 7 9 9 8 8 8 9 10 10 11 11 12 13 13 14 14 15 16 16 17 18 19 19 18 19 21 21 22 23 23 24 24 24 26 27 28 29 30 29 26 24 23 24 30 31 37 46 41 33 34 43 46 31 27 32 30 32 35 33 36 37 38 38 36 38 40 40
8 8 8 8 8 8 8 8 7 7 7 6 7 7 8 9 12 16 18 16 11 8 9 8 8 8 9 9 10 10 11 12 12 12 13 14 14 16 16 16 17 19 19 20 20 20 21 21 23 24 25 26 25 26 26 28 30 30 31 32 28 27 26 27 31 30 41 52 40 31 33 42 51 38 27 32 32 33 36 35 38 39 38 38 37 39 40 39
6 7 8 9 9 8 8 7 7 8 7 7 8 8 10 11 11 18 20 13 8 9 8 8 8 8 9 10 10 11 11 12 12 13 14 15 16 17 17 17 18 18 19 20 20 20 21 22 23 24 26 27 27 26 26 29 31 30 33 34 30 30 28 29 33 32 48 57 38 28 32 39 51 41 28 33 34 34 38 38 40 40 37 37 38 40 41 39
6 8 9 9 8 7 7 7 8 9 8 8 10 10 11 11 10 13 14 11 9 9 7 8 8 9 10 10 11 11 12 12 13 14 14 15 16 16 16 18 19 20 21 21 22 21 22 23 24 25 26 28 29 28 27 30 31 31 34 34 34 40 41 45 49 45 49 49 34 30 37 41 44 36 30 35 34 37 40 41 42 41 38 38 39 41 42 37
8 9 9 8 7 7 6 7 9 11 11 10 11 10 11 14 15 11 9 9 10 8 7 9 9 9 10 10 11 12 12 13 13 14 14 15 16 16 18 20 20 22 23 24 25 23 23 25 25 27 28 29 31 30 28 30 32 33 35 36 39 47 53 60 64 58 52 44 34 35 43 45 39 32 33 35 36 40 42 43 44 42 40 41 40 42 41 35
9 9 8 7 6 6 6 8 10 11 12 11 11 12 11 13 15 11 8 7 9 8 7 8 9 9 9 10 11 12 12 13 13 14 15 15 17 17 19 21 22 24 24 25 26 26 28 29 27 29 30 30 33 33 31 32 33 34 36 38 39 41 48 55 58 57 52 47 42 40 44 44 38 35 36 35 39 44 44 45 46 44 44 43 42 44 41 33
9 8 7 5 4 5 5 7 9 9 11 12 12 12 11 11 11 9 7 6 8 8 6 8 9 9 10 10 11 12 12 13 13 14 15 16 17 18 19 22 22 24 25 26 27 28 29 29 27 29 31 32 35 34 33 33 34 36 37 38 40 41 43 47 49 45 44 53 57 48 42 40 38 37 36 37 42 45 46 48 48 48 47 46 47 45 38 30
8 7 6 4 4 5 5 6 7 8 10 11 10 10 10 10 9 7 7 7 8 8 7 8 9 9 10 10 11 12 13 14 14 15 16 16 18 19 19 21 23 25 27 27 28 29 28 27 27 30 32 34 36 35 35 34 34 37 39 40 42 42 42 47 50 46 51 67 64 46 40 42 41 40 37 39 45 45 48 51 51 51 50 49 48 42 35 30
6 5 5 5 5 6 5 5 6 7 9 9 9 9 8 9 8 6 7 7 8 7 7 8 9 9 9 10 11 12 12 14 14 15 16 16 18 18 19 21 23 26 28 28 30 31 30 28 27 30 33 34 36 36 35 35 35 37 39 43 43 42 43 47 52 59 71 80 65 45 45 48 46 45 40 41 46 47 50 53 53 54 53 51 48 40 35 31
5 4 4 5 7 7 6 6 6 7 8 8 8 8 8 7 7 7 7 7 7 7 7 8 9 9 9 10 11 12 13 13 14 15 16 17 18 18 20 22 23 26 28 29 30 31 32 30 27 30 34 36 37 37 36 35 36 37 39 42 43 45 47 45 51 65 76 82 73 54 49 49 46 44 42 44 47 49 52 54 55 56 56 53 49 42 37 32
4 4 5 6 7 8 7 7 7 8 8 8 8 8 8 7 7 7 7 7 7 7 8 8 8 9 9 10 11 12 13 13 14 15 16 17 18 19 21 22 23 26 28 30 31 32 34 33 30 32 35 38 37 37 38 37 38 39 39 41 42 45 48 45 49 57 62 77 84 70 58 50 40 40 45 48 50 52 54 55 56 57 58 56 51 45 40 35
4 5 5 6 8 8 8 8 8 8 8 8 8 8 7 7 7 7 7 7 7 7 8 8 8 9 9 10 11 12 13 13 15 16 16 17 18 19 21 22 24 26 27 30 32 33 35 35 33 33 35 39 39 39 41 39 39 40 38 40 41 45 49 48 49 49 52 71 85 83 73 49 33 40 47 49 53 54 55 56 57 58 59 58 55 50 44 39
5 6 7 7 8 8 8 8 7 8 8 8 8 8 8 7 7 7 7 7 7 8 8 8 8 9 9 10 11 12 14 14 15 16 17 18 19 20 22 22 24 26 27 30 32 34 36 35 35 34 35 37 38 39 41 40 41 40 39 41 41 46 50 52 57 54 51 61 65 72 76 49 29 40 47 49 55 55 56 58 58 59 60 61 60 57 50 44
6 7 8 8 8 8 8 8 8 8 8 8 8 8 8 8 7 7 7 7 7 8 8 8 9 9 10 11 12 13 14 15 15 16 17 18 20 21 22 23 24 25 27 29 31 34 35 36 37 36 35 37 39 39 40 41 42 42 43 44 45 50 50 52 61 56 52 59 55 63 74 48 28 39 45 48 55 55 57 60 59 61 61 61 64 63 57 50
7 8 8 7 8 8 8 8 8 8 8 8 8 8 9 9 8 8 7 7 8 8 9 9 9 10 10 11 12 13 14 15 15 16 17 18 20 21 22 24 24 25 27 28 30 33 35 38 40 38 35 35 36 37 37 40 44 44 46 48 49 53 51 51 56 54 56 61 55 66 79 49 26 37 43 45 53 56 59 61 61 64 63 62 65 65 63 58
7 8 7 7 7 7 7 8 8 8 8 8 8 8 9 9 9 9 8 8 8 8 9 9 10 10 11 11 12 13 15 16 16 17 17 18 20 21 23 24 25 26 27 28 30 33 35 38 40 42 44 44 42 43 42 43 47 47 47 49 49 52 53 53 54 58 62 58 52 68 76 47 29 37 40 43 52 56 60 64 64 65 65 64 64 65 67 65
7 8 7 7 7 7 8 8 8 8 8 8 8 8 9 9 9 9 8 8 9 9 9 10 10 11 11 12 13 14 15 16 17 17 18 19 20 21 23 24 25 26 27 28 30 32 34 36 38 42 50 54 53 50 47 46 48 47 45 47 50 52 54 54 56 62 62 55 53 61 59 42 31 34 38 44 53 57 62 65 65 65 67 66 65 66 68 69
7 7 7 7 7 7 8 8 8 8 8 9 9 9 9 9 10 10 9 9 9 9 10 10 11 11 12 12 13 14 15 16 17 18 18 20 21 21 23 24 25 26 27 28 29 31 33 34 35 38 41 44 44 42 42 44 45 44 43 45 49 52 54 56 58 58 53 52 55 49 45 44 36 29 37 47 54 59 63 64 65 65 67 68 68 67 67 71
7 7 7 7 7 7 7 8 8 8 9 9 9 9 10 10 10 11 11 10 10 10 10 10 11 12 12 13 13 15 16 16 17 18 19 20 21 21 23 24 25 26 27 28 30 31 33 32 34 35 35 36 37 36 39 42 42 42 42 43 45 50 54 55 53 48 46 54 55 40 40 50 40 29 39 50 55 61 61 62 63 62 65 69 71 70 69 72
6 6 6 6 6 7 8 8 9 9 9 9 9 10 10 10 11 11 11 11 10 10 11 11 11 12 12 13 14 15 16 17 18 19 19 20 21 22 23 23 25 25 26 29 30 31 33 32 32 34 33 34 35 35 38 40 41 41 39 38 41 46 50 49 44 43 47 55 52 40 44 51 39 32 42 51 58 61 57 57 59 58 63 69 71 72 73 74
5 5 6 6 6 7 7 8 9 9 10 10 10 10 10 11 12 12 12 12 11 11 11 11 11 12 13 14 14 15 16 18 19 19 20 21 22 23 24 23 24 25 27 29 30 32 34 33 33 34 33 31 32 35 37 39 40 37 31 33 38 42 43 43 41 42 48 51 46 44 50 46 33 35 47 54 58 57 51 51 53 54 61 68 70 73 75 77
5 5 5 5 5 6 7 7 9 9 10 10 10 10 11 11 12 13 13 13 12 12 11 12 12 13 13 14 14 15 16 18 19 20 21 22 23 23 24 24 25 26 27 29 29 31 34 34 34 35 34 31 30 33 35 38 41 36 29 31 37 40 40 40 40 42 47 48 44 47 54 42 29 40 53 55 56 55 49 47 48 52 60 66 68 71 75 79
4 4 5 5 5 6 7 8 9 9 10 11 11 11 11 12 13 13 13 13 13 12 12 12 13 13 14 15 15 16 17 18 19 20 21 22 23 24 25 25 26 27 27 29 30 31 32 34 33 36 38 32 29 33 35 36 38 34 28 30 34 37 38 38 39 42 44 45 45 50 51 37 31 47 56 54 55 55 50 46 46 51 59 62 63 68 74 77
4 4 5 5 6 7 8 9 9 10 10 11 11 12 12 12 13 14 14 14 14 14 14 13 13 14 14 15 16 17 18 18 18 20 21 22 23 24 25 25 26 27 27 29 31 31 32 34 33 38 41 34 30 35 36 35 38 34 28 30 31 33 37 38 37 37 38 42 47 47 40 32 38 52 56 53 53 52 49 46 46 51 57 58 59 64 69 73
Wind_Speed
12 12 12 12 11 10 11 12 12 8 8 7 2 3 8 9 10 12 13 14 16 16 16 16 15 14 12 11 11 11 12 16 17 12 9 11 14 15 15 15 15 14 13 14 13 12 12 12 11 10 12 14 14 13 12 11 9 8 9 6 4 6 9 10 11 13 13 13 16 18 19 20 21 25 27 25 26 29 30 31 29 28 28 27 28 29 32 34
13 11 11 12 11 9 9 11 11 7 6 5 3 5 8 9 11 12 13 15 16 15 14 14 13 12 12 12 12 11 12 17 16 9 9 14 16 16 15 14 14 14 14 15 15 14 12 12 12 12 14 13 11 12 13 11 9 9 9 8 9 10 11 10 10 12 11 13 17 17 19 22 21 22 24 23 25 30 30 30 30 30 31 32 33 33 34 34
14 11 10 10 9 8 9 11 10 4 5 5 5 7 9 10 11 11 13 14 14 14 12 11 10 11 11 12 13 12 13 16 14 11 14 16 16 15 14 14 14 15 15 15 14 13 11 11 11 12 13 11 10 12 12 9 10 11 9 11 13 12 11 8 9 11 12 15 17 18 23 26 24 22 24 23 24 27 29 30 32 33 34 34 35 35 35 34
14 12 10 8 7 6 7 11 10 2 4 5 6 8 9 10 11 11 12 13 13 12 11 10 10 10 9 10 11 12 14 14 13 14 16 16 15 15 13 13 15 15 15 14 12 11 10 10 11 12 12 11 12 12 11 10 10 11 12 14 14 11 9 7 10 13 16 20 20 23 28 28 27 24 22 22 22 25 29 31 33 35 35 34 34 36 36 35
14 13 10 7 5 5 6 9 8 2 3 5 7 9 10 11 12 12 12 12 12 11 11 11 10 10 9 8 9 8 9 12 14 15 15 14 15 14 13 14 15 14 14 12 11 10 10 11 11 11 11 12 11 10 11 12 12 12 13 12 10 10 8 7 13 18 22 25 23 25 29 28 27 24 21 21 22 25 30 32 35 36 36 35 34 36 37 37
15 13 11 8 6 5 5 7 5 3 4 6 8 9 10 12 13 12 12 11 10 10 11 10 10 11 10 10 12 11 9 12 14 14 13 14 14 13 13 15 15 14 13 12 11 11 11 12 11 10 11 11 10 10 12 14 14 12 11 10 11 12 10 11 18 22 25 26 24 26 28 27 25 23 23 23 25 28 30 33 35 36 37 36 34 36 39 39
15 13 12 9 7 5 6 7 5 4 6 7 9 9 10 12 12 12 12 11 11 10 10 10 9 10 10 11 16 14 11 13 14 14 14 14 14 13 14 16 16 14 13 11 10 11 12 12 10 10 11 10 10 11 12 14 14 12 11 12 14 16 15 15 20 22 25 26 25 25 26 25 23 23 24 25 27 29 30 32 34 36 37 37 36 37 40 40
14 14 13 10 7 6 7 8 5 4 7 8 10 10 11 12 12 11 10 10 11 10 10 9 8 10 10 11 14 11 10 14 14 14 14 13 14 14 16 16 14 12 11 10 10 11 12 11 11 11 10 10 10 10 12 14 13 11 12 15 17 18 17 17 20 22 24 25 25 25 26 25 25 25 25 26 28 28 29 32 34 36 37 38 37 37 39 39
14 13 12 10 7 6 7 8 6 5 8 9 10 10 11 11 10 10 9 9 10 9 9 9 9 12 11 10 13 10 11 15 14 14 14 13 14 16 16 15 13 12 11 11 11 11 12 11 10 10 10 11 9 9 12 12 10 12 14 18 18 16 17 17 19 21 22 25 25 27 28 25 24 25 25 26 28 28 30 31 33 36 37 38 39 38 38 38
12 13 12 10 8 6 8 9 7 7 9 9 10 10 10 9 9 8 8 8 9 9 8 8 9 11 11 10 11 10 13 15 14 14 14 14 16 16 15 14 13 11 11 11 10 10 11 11 10 10 11 11 7 8 12 11 11 14 15 18 17 15 16 16 18 19 21 24 26 29 28 24 23 24 26 28 29 29 31 33 34 36 38 39 40 40 38 38
11 13 11 11 11 7 8 8 7 7 9 9 10 10 9 8 8 7 8 9 8 9 8 8 7 8 11 10 6 9 14 15 14 14 14 16 16 15 13 13 12 11 11 11 9 10 11 11 10 11 11 10 6 7 11 12 14 15 15 17 15 14 12 13 18 18 21 24 26 29 25 23 24 24 26 27 28 30 32 34 35 37 39 40 41 41 40 40
11 13 11 12 12 8 7 6 6 8 10 10 9 9 9 8 8 7 8 8 9 9 8 8 8 9 12 9 5 11 16 14 14 14 15 16 15 13 11 12 12 11 11 10 10 11 12 11 12 12 11 9 7 7 10 15 16 13 13 13 12 11 9 12 16 16 21 23 24 27 21 21 24 23 25 27 28 31 32 34 36 37 39 40 41 41 42 43
11 12 11 12 10 8 9 7 5 8 10 10 9 9 8 8 7 7 8 8 9 9 9 9 9 12 13 10 10 14 14 13 15 16 15 14 13 11 10 12 12 11 11 11 12 13 12 13 13 11 10 10 9 7 11 16 15 11 10 10 11 10 7 12 13 15 22 22 22 22 17 20 23 22 26 27 29 31 32 35 36 37 38 40 41 42 43 45
9 11 12 12 11 10 11 9 7 9 10 10 9 8 9 8 7 7 7 8 8 8 9 10 10 12 11 9 12 14 13 14 16 15 14 12 12 11 11 12 11 11 12 11 13 13 13 14 11 9 10 12 12 9 13 16 13 12 9 11 15 14 11 10 10 15 20 21 21 18 17 22 23 24 27 27 29 31 33 35 36 36 38 39 41 42 44 46
9 13 13 12 12 12 11 10 9 9 9 9 9 9 9 9 8 7 7 8 8 8 9 9 10 10 7 8 13 14 14 15 14 14 13 11 11 11 11 11 11 12 11 10 12 12 12 12 8 9 12 12 13 12 13 13 12 14 12 13 19 19 15 11 11 16 19 20 19 17 19 23 24 25 26 27 29 31 33 35 36 36 37 39 40 42 45 48
12 17 14 11 12 12 11 11 10 9 8 8 9 9 9 9 9 8 7 8 9 9 9 9 10 9 6 10 14 13 13 13 12 11 11 11 11 11 12 12 12 11 9 8 11 12 11 11 9 12 15 13 15 14 10 12 14 15 16 17 20 21 20 13 11 16 19 19 16 15 19 23 24 25 25 27 30 31 34 35 35 36 37 38 39 41 45 48
13 18 14 11 12 12 11 11 10 9 8 8 10 10 10 9 9 8 8 9 8 9 10 9 10 9 9 12 13 12 12 12 11 11 11 11 10 12 12 11 11 10 10 10 12 13 12 12 12 12 13 14 16 14 10 13 16 17 18 20 21 23 22 16 13 14 19 19 15 14 18 21 23 23 23 26 29 31 34 35 35 36 36 36 38 40 43 47
14 17 14 12 12 12 12 11 11 10 10 10 11 12 11 10 10 10 9 9 9 9 9 9 9 9 11 13 12 12 13 11 11 11 12 12 11 12 12 10 10 10 11 11 9 12 12 11 10 9 13 15 16 18 17 14 15 16 19 20 22 23 20 16 14 14 18 19 16 14 16 21 23 22 24 26 28 31 33 34 34 34 34 35 37 40 43 47
14 15 15 14 13 13 13 12 11 11 10 11 12 12 11 10 11 10 8 7 8 7 8 9 9 10 13 13 12 13 12 10 12 13 13 12 11 12 11 10 11 11 11 10 8 11 13 9 9 13 18 21 21 23 22 17 14 15 17 19 21 24 21 14 12 14 17 19 15 12 16 20 23 23 25 26 27 31 32 33 33 33 33 35 38 42 45 47
13 14 16 15 14 14 13 13 13 12 12 11 11 11 11 11 10 8 7 7 8 9 11 12 12 13 13 12 12 12 10 11 13 13 11 11 11 11 10 11 13 11 10 11 11 13 13 11 13 19 21 22 23 22 21 19 16 15 17 17 18 25 22 11 11 14 15 19 14 11 17 20 21 24 25 26 27 30 32 32 31 31 32 36 40 43 46 45
14 15 16 16 15 15 15 15 14 14 14 13 13 12 12 11 9 8 9 9 11 12 12 12 13 14 13 11 10 10 11 12 13 12 11 12 12 11 11 12 12 10 9 11 13 12 10 13 18 20 20 20 21 21 21 19 17 17 17 16 17 22 19 9 11 15 14 17 13 12 18 19 20 24 24 25 27 29 30 30 30 30 33 37 41 44 45 43
15 16 16 16 16 16 16 15 15 15 15 14 14 13 13 13 12 10 10 11 12 12 12 13 13 12 11 11 10 11 11 12 12 11 12 12 12 11 12 12 11 11 10 10 12 11 11 15 18 16 18 19 19 21 20 19 18 17 16 18 20 21 17 9 10 14 13 15 15 14 16 19 22 23 22 24 26 28 29 29 29 32 35 38 41 43 43 42
15 16 17 17 17 16 15 14 14 14 14 14 14 13 13 14 13 12 10 11 12 12 13 13 12 10 9 9 11 11 9 9 10 11 12 12 12 13 12 11 11 12 11 8 10 13 13 15 14 15 17 17 19 20 19 18 19 18 18 21 22 20 16 11 13 15 12 13 16 13 16 23 22 19 21 24 24 26 27 28 30 33 37 39 41 44 45 45
16 17 17 16 16 15 13 13 13 13 13 13 14 14 14 14 13 12 10 11 11 12 13 13 11 9 8 8 8 8 6 9 10 11 12 13 13 14 13 12 12 12 11 9 10 14 16 15 13 14 14 16 18 19 19 20 20 20 21 23 21 18 14 13 16 17 14 11 10 13 20 21 16 19 24 23 23 25 25 27 30 34 37 40 43 45 46 48
16 16 16 15 15 14 12 12 12 13 13 13 14 14 13 13 11 9 8 8 8 9 10 9 9 9 8 6 7 5 5 9 10 11 13 13 14 14 14 13 12 13 13 12 10 12 15 15 14 13 13 15 17 20 21 21 21 21 23 23 20 17 14 12 13 16 17 12 10 16 15 11 16 26 25 21 23 24 24 27 31 34 39 42 45 46 48 49
15 15 15 14 13 12 10 10 11 12 11 12 13 12 11 9 8 6 4 4 6 7 7 6 6 7 7 6 6 5 5 7 10 12 13 13 13 14 14 13 12 14 14 12 10 9 12 14 15 14 15 16 17 20 21 22 23 22 23 22 17 15 14 11 11 14 14 13 13 13 8 12 26 31 24 21 24 24 25 29 33 38 42 44 46 47 48 49
14 15 14 13 11 9 8 8 9 9 9 10 10 10 8 6 6 4 1 1 2 5 6 5 5 5 5 5 6 6 5 7 10 12 13 13 13 13 14 14 11 13 14 13 11 9 9 13 15 16 17 17 17 19 21 22 22 23 24 23 17 13 11 8 10 11 12 16 15 7 8 16 26 28 24 22 23 25 29 33 37 41 42 44 46 46 47 48
14 15 13 9 8 6 5 6 6 6 7 8 9 8 5 3 4 3 1 1 1 1 2 3 4 4 3 4 5 6 6 8 10 10 12 13 13 13 15 15 12 12 14 13 12 10 8 10 15 17 18 19 19 19 22 21 22 25 27 26 19 13 9 6 9 10 9 15 13 8 10 12 19 25 22 19 23 28 31 36 39 41 42 43 45 45 46 47
14 13 10 6 5 4 3 4 5 5 6 8 8 7 6 5 5 5 3 1 2 2 2 3 4 3 2 3 4 5 7 8 9 10 11 11 13 13 14 15 13 11 13 14 14 13 10 9 13 17 17 19 19 19 21 21 22 26 29 29 20 10 8 5 7 10 7 9 10 8 8 9 14 22 18 19 27 29 33 38 39 39 41 43 43 45 47 49
13 11 7 5 4 4 3 4 4 5 6 7 9 8 7 6 5 4 2 2 4 5 4 3 3 3 2 3 3 4 6 8 8 10 10 10 12 12 12 15 15 13 15 16 16 15 12 9 10 15 16 18 19 18 20 21 22 26 31 33 23 9 5 3 5 8 4 6 6 5 9 12 10 14 19 24 28 29 35 38 37 39 41 42 44 46 49 51
12 10 6 5 4 3 3 4 4 4 6 7 8 7 7 7 6 4 2 2 5 7 5 3 3 3 3 2 3 4 5 6 7 8 9 10 11 11 11 15 16 14 14 17 17 15 12 8 9 14 15 18 19 18 19 20 22 25 30 33 25 10 3 1 3 3 3 5 5 5 16 17 9 13 23 27 28 31 35 36 37 41 42 43 46 48 50 53
12 8 6 5 4 3 3 4 4 5 6 7 7 8 7 7 7 6 4 4 6 7 6 5 5 4 3 2 2 3 4 5 6 6 8 9 9 11 13 15 17 14 13 17 17 16 14 9 8 13 15 17 20 18 18 19 21 24 29 33 23 8 5 3 1 2 4 7 7 12 22 18 13 20 26 26 28 31 34 37 41 43 43 45 47 49 52 53
10 7 5 4 3 3 4 4 5 6 6 7 7 8 8 5 5 7 7 6 5 7 8 5 5 5 4 2 1 2 3 5 6 6 8 9 10 13 15 15 17 15 14 16 16 17 17 10 8 13 14 17 21 20 17 18 20 22 28 30 18 5 5 5 3 4 5 12 19 22 20 14 16 26 28 25 29 32 35 40 44 45 46 47 49 50 52 52
7 6 4 4 3 4 4 5 7 6 5 6 7 8 9 7 5 6 7 8 4 5 9 7 5 5 4 3 1 2 3 4 6 7 8 9 10 12 14 14 15 16 16 16 15 16 15 9 9 14 14 17 22 20 17 18 18 20 24 23 15 6 2 2 4 3 6 21 30 21 9 11 20 29 28 26 30 33 37 42 45 47 47 48 50 50 51 51
6 5 4 3 3 4 5 7 7 6 5 6 7 9 9 8 7 6 8 10 5 5 8 7 6 5 5 5 3 2 3 4 7 7 7 9 10 10 13 14 14 16 16 16 15 15 14 11 11 14 15 18 22 20 17 16 15 18 21 20 17 9 1 5 8 10 13 18 20 12 11 23 29 28 25 26 32 36 38 44 47 47 48 49 49 50 50 50
6 5 4 4 4 4 6 7 6 6 7 6 7 9 8 7 6 6 7 9 7 6 8 7 6 6 6 6 5 4 3 4 6 7 7 9 9 10 12 13 14 15 16 16 15 14 16 15 11 13 17 19 21 20 18 15 13 16 18 18 18 11 7 8 9 11 9 7 9 12 19 34 33 23 24 30 35 37 39 45 47 47 48 49 48 49 48 48
5 4 4 4 4 5 6 6 7 7 7 7 7 8 7 6 5 4 6 8 7 7 8 8 7 6 6 6 5 5 4 5 6 7 8 8 8 10 12 12 13 15 16 16 15 15 18 15 10 14 20 21 21 20 18 16 14 15 16 17 18 11 8 10 7 5 3 2 9 14 21 33 28 18 27 36 35 37 40 44 46 47 48 48 47 47 47 48
5 5 5 5 4 4 5 6 7 7 6 6 6 6 6 6 5 4 5 6 7 8 9 8 8 7 7 7 6 6 5 5 6 7 8 8 9 11 11 12 12 14 15 16 15 17 18 13 9 15 21 21 21 18 16 16 15 15 15 17 17 8 5 9 7 4 4 1 8 16 21 26 24 22 32 37 35 39 42 44 46 47 48 47 47 46 46 47
5 5 5 5 4 4 4 5 6 6 6 5 5 5 5 5 6 5 6 7 7 8 9 9 9 9 9 9 8 6 6 7 7 7 8 8 9 11 11 11 12 13 15 15 15 17 18 11 9 17 23 22 20 17 16 17 18 17 17 17 18 10 7 11 7 4 4 1 5 14 17 22 26 27 33 37 39 42 44 45 47 47 48 47 45 46 46 46
5 5 5 5 5 5 5 6 6 6 7 6 5 5 5 4 5 6 6 7 7 8 8 9 10 10 10 10 9 8 8 8 8 8 8 8 9 10 10 11 13 14 14 15 15 17 18 13 11 19 24 21 20 18 17 18 18 19 19 18 19 16 13 13 10 9 6 3 1 3 11 25 31 28 33 42 43 44 45 47 47 47 47 46 44 45 45 45
5 5 5 5 6 6 6 6 7 7 8 7 6 6 5 5 5 6 7 8 8 8 8 9 10 10 10 10 10 10 9 9 9 9 8 9 9 9 9 11 13 13 14 16 15 16 18 15 15 21 25 22 20 18 16 17 17 20 22 21 21 21 16 9 7 9 8 8 5 2 10 29 36 33 40 46 42 44 47 47 48 48 46 45 45 45 45 46
5 5 5 6 6 6 7 7 7 7 8 8 7 7 6 6 6 6 7 8 9 9 9 10 11 11 11 11 11 11 10 10 10 9 8 9 9 9 11 12 13 14 15 16 15 18 19 15 15 21 24 21 18 15 13 14 16 18 20 22 23 22 19 10 5 9 9 11 12 6 9 26 40 41 44 45 42 45 46 46 48 47 46 46 45 45 45 45
5 5 5 6 6 6 7 7 7 7 8 8 8 8 7 6 6 7 8 8 9 10 10 11 11 11 12 12 12 12 11 11 11 10 10 10 10 11 12 12 13 14 15 15 16 19 18 13 17 24 24 20 16 12 12 14 17 20 22 25 25 24 22 17 15 17 14 15 14 7 9 25 44 46 44 43 44 45 44 46 48 47 47 47 45 45 45 45
5 5 5 5 5 6 6 6 7 7 8 8 9 8 7 7 7 8 8 9 10 10 11 12 12 12 12 12 12 13 12 11 10 10 10 10 11 12 12 13 13 14 15 16 16 17 16 15 19 21 19 17 14 11 13 18 21 25 27 28 27 25 22 19 18 17 13 17 14 8 11 32 48 46 44 44 44 44 43 44 47 48 49 47 46 46 45 45
4 4 4 4 5 5 5 6 6 7 7 7 8 8 8 8 8 8 9 10 11 11 12 12 12 13 13 13 13 13 13 12 11 11 11 11 12 12 13 13 14 15 16 16 16 17 17 18 20 15 8 8 10 13 19 25 27 28 29 28 28 27 24 20 17 14 14 18 17 14 22 44 51 45 43 44 41 42 43 44 47 50 49 48 47 46 45 45
4 4 4 4 4 5 5 5 6 7 7 7 8 8 8 9 9 9 10 10 11 12 13 13 13 14 13 13 14 13 14 14 13 12 12 12 13 13 14 15 16 17 17 17 17 16 17 20 20 18 16 16 20 24 26 27 28 29 30 29 29 28 26 23 19 20 20 20 25 31 37 47 49 46 43 43 40 42 45 46 48 50 49 49 48 46 46 46
4 4 4 4 4 4 4 5 6 7 7 8 9 9 9 9 9 9 10 11 12 12 13 14 14 14 14 14 15 14 15 15 14 14 14 14 14 14 15 16 17 17 18 18 17 16 19 21 19 20 25 26 27 30 26 23 27 31 32 30 29 27 26 26 24 27 26 20 28 41 42 43 47 48 43 43 44 45 48 48 49 50 49 49 48 48 47 45
4 3 4 4 4 4 5 6 6 7 7 8 9 9 9 9 9 9 10 11 12 12 13 14 14 14 14 15 15 16 16 15 15 15 14 14 15 15 16 17 17 18 18 18 18 18 20 22 20 22 26 28 29 28 25 24 28 33 33 30 27 26 28 30 29 31 31 28 34 44 44 46 48 45 42 45 45 46 49 49 49 50 50 49 49 48 47 45
4 4 4 4 4 5 6 6 7 7 7 8 9 9 9 9 9 10 11 12 12 13 14 14 14 14 15 15 16 17 16 15 15 16 15 16 16 16 17 18 17 18 19 18 20 20 19 22 23 23 26 30 28 24 25 27 31 35 32 24 20 23 26 30 31 31 33 38 41 43 45 47 43 41 44 48 46 48 50 50 50 51 49 49 49 48 47 47
4 4 3 4 5 5 6 7 7 8 8 8 9 9 9 9 10 10 11 12 13 14 14 14 14 15 16 16 17 17 16 16 17 17 17 17 17 17 18 18 18 19 20 21 21 21 20 23 24 25 29 31 27 25 28 29 34 37 28 15 14 19 23 28 31 30 32 37 40 39 44 48 43 41 46 49 48 50 51 51 52 51 48 48 48 49 49 48
3 3 4 5 6 6 7 8 8 8 8 8 8 9 9 10 10 11 12 13 13 14 14 15 15 16 16 16 17 17 17 18 18 18 18 18 18 19 19 19 20 21 22 22 22 22 22 24 26 26 28 31 30 28 29 33 37 34 21 16 17 19 22 27 29 29 31 34 37 38 43 45 45 45 48 50 50 51 52 51 52 49 47 48 49 50 50 49
3 4 4 5 7 7 8 9 9 9 9 8 9 9 10 10 11 11 12 12 13 13 14 15 15 16 16 17 17 17 17 19 19 19 19 20 20 20 21 22 21 21 23 22 22 24 23 24 26 24 25 32 32 29 33 36 29 20 19 24 25 20 20 24 28 32 33 33 36 39 40 41 45 49 51 51 51 51 52 52 51 49 48 49 50 51 50 50
Wind_Direction
147 127 119 115 108 98 92 97 99 91 87 108 166 84 95 103 105 108 103 100 98 96 95 94 91 88 90 92 94 98 100 95 83 80 97 95 82 72 68 68 67 65 60 60 55 45 42 38 34 38 48 51 47 49 48 45 41 41 50 57 50 28 15 10 2 355 353 355 352 343 343 348 342 336 338 335 330 331 336 339 339 338 336 331 327 323 320 320
156 137 124 122 117 106 97 102 107 101 104 127 136 97 101 107 109 108 105 103 100 98 97 97 95 91 90 90 90 90 90 89 83 88 97 80 70 65 63 63 62 58 51 48 45 38 34 30 31 38 48 48 41 43 44 42 37 37 39 34 40 35 20 12 358 355 355 357 351 340 344 350 348 343 339 335 332 336 338 338 339 339 337 334 332 330 328 326
163 148 134 130 123 116 99 107 127 107 87 115 98 98 109 112 112 112 112 110 107 105 103 105 104 98 93 89 86 85 85 83 80 83 79 69 65 63 61 61 58 53 47 42 37 33 31 30 32 38 47 46 40 42 41 39 36 35 28 24 37 34 20 12 358 5 6 358 349 342 349 354 354 347 342 341 337 335 336 338 340 339 337 336 336 335 333 330
166 156 144 140 131 127 95 103 140 154 61 98 96 108 116 111 112 114 114 112 110 107 103 101 101 101 101 95 89 83 79 77 77 74 69 67 65 63 61 58 54 50 44 37 32 28 23 27 33 36 40 36 37 40 34 37 39 34 28 27 33 25 22 25 10 13 9 0 354 348 352 355 352 348 346 344 338 335 338 341 341 339 337 337 337 337 335 331
164 159 150 150 145 138 101 97 129 140 79 102 104 114 116 111 111 110 110 107 106 105 100 94 95 97 95 98 98 90 79 72 70 69 69 70 68 63 60 54 48 45 41 29 19 18 16 24 35 39 36 31 35 35 30 36 34 30 36 37 28 20 31 33 10 8 7 2 352 348 352 352 348 347 347 344 341 340 341 342 341 339 336 333 333 335 335 333
161 160 155 157 157 144 118 106 116 104 103 112 110 117 118 116 113 110 108 105 105 104 102 99 97 95 88 92 85 76 80 78 71 71 72 69 66 60 53 49 41 33 30 21 9 13 16 23 34 38 35 33 33 31 34 36 29 30 43 42 24 17 27 25 8 5 6 359 347 347 352 349 346 349 349 347 346 345 344 343 341 339 335 331 329 332 334 333
159 160 161 164 155 147 138 135 134 105 111 119 117 122 123 120 116 113 110 109 107 101 103 103 96 91 85 86 80 71 79 84 76 73 70 64 62 52 46 43 33 23 21 16 10 15 17 20 29 33 31 28 29 34 37 34 28 29 35 32 22 12 16 21 8 2 3 354 344 347 349 347 350 353 351 350 349 346 343 342 341 339 336 331 327 329 331 330
160 162 168 171 150 144 143 141 146 113 115 125 124 128 125 120 115 111 108 106 102 98 100 96 88 83 74 80 85 81 79 80 75 69 65 59 55 45 41 35 24 17 13 12 14 19 18 17 25 32 27 22 31 40 35 34 32 29 26 27 24 9 8 17 4 356 359 351 342 344 347 350 355 355 352 351 347 342 340 340 340 339 337 334 328 326 328 329
163 168 174 179 158 136 131 137 152 127 123 130 127 127 123 118 115 112 107 102 102 103 99 95 93 85 78 84 90 87 78 75 70 64 59 52 47 41 35 27 16 11 8 12 16 18 17 15 24 31 24 22 38 45 31 34 35 31 29 27 24 7 3 10 357 349 352 346 342 345 348 353 357 355 353 350 344 339 338 337 337 337 337 335 330 326 326 328
169 173 177 182 171 138 123 135 146 132 129 129 124 126 126 122 119 117 110 104 106 106 100 95 93 90 88 83 82 84 76 71 63 56 50 42 40 34 28 17 12 10 9 16 14 15 15 12 21 28 24 25 42 46 28 26 29 33 33 28 22 2 357 1 346 339 345 344 344 347 348 352 358 356 352 348 343 339 338 337 336 336 336 334 332 327 325 326
175 175 171 178 179 159 132 127 127 133 130 122 125 129 130 126 120 118 115 115 113 106 98 89 86 94 91 76 71 84 74 65 58 50 44 40 34 27 20 10 11 12 12 15 11 15 15 12 21 26 25 24 33 36 20 19 30 35 32 27 19 357 349 347 335 328 341 347 344 346 346 350 356 355 350 346 342 339 337 337 336 337 336 334 331 327 325 324
179 172 160 169 173 163 153 134 121 137 129 123 131 131 129 126 118 118 121 120 112 103 94 91 96 96 89 85 90 81 71 62 54 45 41 37 30 20 13 9 13 13 13 14 11 16 14 17 27 25 21 21 25 24 17 24 31 34 33 29 17 1 339 327 330 327 338 346 343 342 343 350 354 351 348 345 341 339 337 338 338 337 335 333 330 327 325 325
174 167 152 158 158 155 171 166 148 142 131 131 134 130 127 119 111 113 115 113 106 100 94 96 105 97 90 93 88 77 69 62 51 41 37 33 24 15 12 15 15 14 16 12 13 16 12 22 31 19 16 23 27 23 22 29 27 24 27 18 11 13 347 325 329 331 336 340 339 338 339 347 354 352 348 345 341 339 337 338 338 335 333 331 329 327 326 326
161 164 150 151 154 157 167 161 153 148 138 139 138 134 126 114 111 108 108 110 103 98 98 103 106 100 94 87 79 73 63 55 48 40 33 25 19 16 17 16 14 15 16 15 18 16 15 25 27 14 21 25 22 21 25 29 20 12 11 5 9 12 3 342 330 333 335 335 336 335 335 345 355 354 346 341 339 338 337 337 336 332 330 329 328 328 328 328
158 165 154 148 151 150 149 141 144 149 143 145 146 138 123 116 117 111 110 112 106 102 103 108 104 98 96 79 67 60 52 47 44 37 26 20 20 21 19 14 15 17 13 19 22 19 26 28 13 15 31 28 22 22 26 25 12 8 10 11 14 9 3 358 335 333 335 334 335 335 335 345 356 352 343 337 336 336 336 336 333 329 325 325 327 328 330 330
157 163 159 144 143 138 133 134 142 147 149 153 151 140 125 121 123 117 112 109 114 113 103 102 103 103 102 75 62 55 52 46 37 32 23 22 24 24 20 12 16 17 8 17 20 22 35 29 15 26 34 36 32 26 20 19 15 13 11 10 10 4 358 357 344 333 329 332 339 335 332 344 353 347 339 334 333 335 336 335 331 326 322 322 324 328 330 332
151 162 165 144 137 135 134 140 143 143 143 146 147 141 128 120 122 120 111 106 112 113 105 104 106 107 96 76 68 61 53 40 30 31 28 27 28 26 20 10 14 15 8 18 21 20 29 24 19 25 29 36 35 29 20 16 15 12 11 7 2 1 356 346 344 335 324 329 339 331 327 339 346 340 334 331 328 332 334 333 328 323 321 320 323 326 329 331
144 156 159 143 138 139 141 142 141 137 132 129 132 133 127 119 120 117 112 111 111 109 110 111 108 102 89 77 71 61 48 34 29 33 31 29 29 26 18 7 12 16 14 24 20 17 27 22 11 13 19 24 25 25 27 21 9 6 9 4 354 356 354 341 340 335 322 329 336 326 322 332 337 334 331 328 325 328 331 329 326 322 320 320 322 325 327 331
140 144 143 142 145 145 143 140 137 135 127 121 121 123 123 123 123 120 114 114 118 115 109 108 107 99 90 79 67 58 45 32 32 33 30 29 29 24 13 6 15 18 19 23 10 13 22 4 351 10 17 20 21 24 27 21 8 3 3 1 348 342 346 344 337 334 324 326 332 318 316 324 326 328 329 325 322 326 328 326 323 321 320 321 323 325 327 330
138 138 139 145 151 146 139 135 133 128 121 115 113 114 122 126 126 128 123 119 124 120 110 107 102 91 85 76 64 55 42 34 34 32 29 31 32 24 12 12 18 16 13 13 10 14 9 352 8 22 23 24 23 23 24 19 11 5 359 356 341 333 342 348 336 343 328 321 330 318 314 318 317 322 325 322 322 326 326 322 320 320 322 324 326 327 328 330
141 143 146 149 150 141 132 129 126 120 114 108 104 107 118 122 119 125 129 128 127 120 111 103 92 81 75 70 61 49 39 36 33 29 29 32 33 25 16 20 18 7 5 11 16 14 354 4 25 26 21 21 21 21 20 17 13 7 357 345 334 333 342 347 343 351 327 311 325 320 313 312 309 315 319 320 324 326 323 319 317 320 324 326 327 329 330 331
149 150 150 151 146 135 129 127 123 117 112 107 105 109 115 114 111 118 129 131 123 113 103 91 82 77 72 65 54 45 36 27 25 26 29 32 31 24 21 22 14 7 11 12 14 10 3 22 30 21 18 18 17 21 19 15 12 8 358 342 334 334 338 346 349 348 328 311 324 323 307 303 305 309 316 321 324 324 321 319 320 323 325 326 328 330 332 333
153 151 149 149 140 131 130 126 120 115 111 111 112 114 115 113 114 119 125 122 110 99 92 84 79 76 70 61 52 48 37 20 21 25 31 33 29 26 22 17 13 14 16 10 8 12 20 31 27 16 18 14 13 18 16 13 12 8 1 346 337 334 333 334 336 343 343 319 321 323 299 297 302 308 320 324 325 324 321 321 325 327 326 325 328 332 335 335
151 148 148 146 135 132 131 124 119 116 114 117 118 118 118 119 120 121 118 110 99 91 86 81 78 71 65 60 53 48 30 20 21 24 30 30 27 26 19 12 16 16 15 13 8 14 25 28 19 15 13 9 11 13 9 11 14 10 3 349 336 331 327 322 323 334 348 336 331 329 305 295 303 319 327 326 325 326 323 324 327 326 325 327 330 334 335 333
148 148 149 142 133 132 128 122 120 119 120 124 125 126 127 127 128 126 118 101 88 87 86 81 76 65 60 57 47 36 21 20 21 24 29 27 24 24 16 12 15 12 13 17 10 12 22 20 12 10 5 7 10 7 6 7 11 11 3 350 334 326 323 319 315 322 336 350 355 338 315 294 311 324 328 325 326 328 324 326 328 327 328 331 333 335 332 328
148 149 145 138 135 132 125 124 123 123 129 131 131 134 135 135 135 132 122 97 75 75 83 85 81 65 59 62 46 30 18 16 18 25 28 24 22 20 15 11 14 14 13 15 11 4 13 15 9 3 4 7 5 4 6 2 5 10 2 350 337 324 318 314 314 316 321 335 342 331 306 297 311 320 328 327 330 332 328 329 329 330 332 332 333 332 327 325
148 147 141 139 141 133 125 130 131 132 140 141 142 142 141 143 144 141 133 125 44 61 78 75 79 79 70 68 44 33 32 20 19 23 23 19 19 17 13 11 13 15 13 12 9 358 0 9 6 2 3 2 357 0 2 359 2 3 359 356 345 326 316 307 313 310 299 314 327 308 280 297 304 316 329 328 332 336 333 333 332 331 332 331 330 327 324 326
149 147 144 146 149 139 130 140 149 155 157 159 160 159 165 179 190 214 254 253 285 11 75 65 85 107 88 64 40 34 34 24 20 20 18 16 15 12 11 12 11 11 13 11 7 357 347 355 3 2 359 355 353 357 358 358 358 356 358 1 351 327 315 310 313 313 300 306 310 287 291 298 294 310 328 330 331 336 334 333 333 331 330 328 326 325 326 330
155 155 156 156 159 156 146 150 165 177 177 182 187 194 214 228 227 236 257 244 213 178 124 115 121 127 98 67 44 28 26 21 17 16 13 11 13 10 8 12 12 8 8 7 5 1 344 341 358 358 353 353 352 352 353 355 354 353 356 360 356 329 311 327 319 315 301 286 284 282 318 331 302 310 333 335 330 333 332 333 332 330 328 326 327 329 332 335
162 166 173 177 176 174 165 166 177 186 189 197 204 213 225 223 218 220 245 246 199 179 157 138 141 149 127 83 48 26 24 17 9 11 6 2 9 8 4 11 13 9 5 3 2 359 345 331 345 351 351 353 351 346 349 351 352 352 355 359 2 347 318 345 326 309 273 274 279 260 320 335 312 313 332 332 330 331 330 332 331 328 328 329 332 335 337 338
169 177 188 196 194 189 181 179 185 189 191 195 200 207 209 205 208 212 229 230 195 189 192 191 183 172 148 101 57 29 24 11 4 6 358 358 6 1 2 11 13 9 4 1 358 356 349 330 335 345 345 349 349 344 344 348 350 353 357 360 2 358 335 341 331 320 216 279 291 268 310 316 281 300 326 328 330 331 330 333 333 331 334 336 338 339 339 339
174 186 200 206 205 200 193 189 189 184 180 183 187 193 196 200 218 235 236 211 191 188 188 191 199 194 169 124 70 27 21 7 358 356 352 357 359 355 3 11 12 11 3 357 354 355 354 340 332 340 339 344 346 341 342 346 348 351 357 3 6 359 349 355 319 311 252 266 284 299 311 305 275 302 325 329 329 331 332 335 336 337 340 341 341 340 339 338
180 196 208 209 210 201 196 190 184 176 172 182 188 195 202 207 227 243 229 201 194 200 200 206 215 207 201 189 98 25 8 359 353 347 352 355 352 357 6 7 10 13 2 354 352 353 356 351 339 339 335 338 340 341 345 345 347 352 0 8 15 18 1 349 307 316 281 285 301 307 306 293 292 317 330 331 330 333 335 336 338 340 343 343 342 340 337 335
193 210 214 215 215 202 198 188 181 178 179 193 198 202 211 220 239 254 224 203 209 217 209 214 220 212 221 221 205 357 348 353 350 344 350 352 347 355 4 4 6 8 1 357 354 352 352 345 338 340 333 334 338 340 343 342 347 355 0 7 14 36 62 305 294 301 283 298 307 312 304 294 309 323 330 331 334 336 336 337 339 342 344 343 341 338 334 332
210 222 223 221 218 206 199 191 187 192 196 202 206 206 216 232 252 264 225 207 221 226 208 213 221 221 231 229 235 307 326 337 344 344 342 342 341 348 359 0 1 2 1 0 357 351 346 337 336 341 337 335 338 337 337 341 349 352 355 0 1 5 302 264 277 278 282 296 308 308 299 306 313 320 327 333 337 337 337 337 340 343 343 341 338 334 332 333
221 226 225 220 220 209 200 196 199 207 206 211 218 218 229 248 259 258 220 211 232 236 215 218 228 236 245 243 252 283 300 315 334 341 331 333 341 345 351 352 354 359 359 359 359 354 347 340 338 344 344 341 339 335 331 334 344 347 351 356 352 344 326 308 286 280 284 284 299 298 302 314 321 327 332 336 338 338 337 336 339 341 340 338 335 333 333 334
224 228 222 220 219 206 198 199 206 213 215 221 227 232 244 253 253 237 211 216 233 232 226 228 235 250 256 251 259 277 293 307 323 331 327 331 340 341 343 345 349 355 355 357 358 352 346 341 339 345 346 343 339 333 328 325 331 336 342 351 350 340 333 333 312 300 329 260 288 294 301 312 317 326 334 335 336 337 335 334 337 338 337 335 334 334 334 334
226 223 215 216 216 203 202 206 212 219 223 227 233 244 251 249 245 233 221 230 234 233 239 239 242 259 261 257 266 275 283 297 313 325 326 328 332 334 337 337 342 349 351 354 353 348 346 341 338 344 344 343 337 331 327 323 321 323 326 338 346 341 311 329 330 313 334 323 295 305 308 311 311 319 331 334 334 333 332 332 335 336 334 333 333 334 335 334
220 214 211 212 206 198 202 211 219 220 221 226 233 245 252 248 243 235 233 239 239 243 248 245 249 261 261 259 264 268 275 288 301 314 321 322 323 327 329 330 337 341 343 348 347 346 345 336 327 338 340 339 336 330 324 321 318 318 318 325 338 340 301 311 313 263 281 257 300 314 314 319 328 330 331 335 335 332 331 332 333 332 331 332 333 334 335 334
213 211 215 214 206 205 213 221 225 224 225 232 233 239 248 243 238 236 233 237 242 248 250 250 255 260 261 261 259 265 277 283 290 300 309 316 320 323 324 326 330 331 335 342 342 343 344 332 319 335 339 335 333 328 320 320 318 313 313 315 322 327 314 307 295 266 255 208 219 331 299 314 337 343 333 336 336 332 332 331 330 329 329 331 333 334 335 335
207 209 215 216 214 221 230 234 237 238 240 242 238 241 248 247 244 240 236 239 245 249 253 255 259 261 262 259 256 266 274 277 284 288 294 309 317 318 319 321 324 324 327 334 337 340 340 329 316 331 338 333 331 330 320 319 317 309 309 305 306 315 313 304 291 269 241 222 246 216 277 312 340 348 336 337 336 331 332 329 327 326 327 331 333 334 336 335
206 211 216 218 223 232 240 243 245 248 249 245 241 246 253 253 250 244 243 246 248 253 258 261 263 263 261 258 261 267 269 275 282 279 284 303 310 310 314 316 317 319 321 326 331 334 335 325 315 328 337 336 333 333 324 319 315 309 307 303 305 309 304 290 268 275 263 248 261 235 250 314 342 344 337 339 335 330 330 326 323 324 326 331 333 335 337 336
218 224 227 231 235 243 249 252 253 257 259 257 254 257 258 253 250 248 249 250 252 257 260 263 266 265 262 262 264 265 267 275 280 276 282 297 303 308 312 312 313 315 317 321 325 330 333 326 318 325 334 338 336 333 330 326 318 313 311 309 307 305 302 292 272 276 278 262 260 208 226 310 337 342 337 339 333 329 327 322 322 324 326 330 332 334 337 336
224 229 237 243 245 249 254 255 258 264 266 265 263 260 256 253 252 253 253 252 254 258 261 265 266 265 266 266 265 267 268 270 278 282 286 293 300 306 308 310 313 312 313 316 319 326 331 327 324 327 335 343 341 336 332 326 319 314 313 312 309 306 302 292 277 273 275 272 265 188 233 304 331 339 335 336 332 327 324 321 322 326 327 330 332 333 336 336
220 229 243 253 256 260 262 260 263 271 273 270 268 263 257 257 258 258 258 256 256 259 262 266 267 267 268 268 268 270 268 268 276 283 290 296 299 304 306 308 311 312 313 313 312 318 323 324 327 325 323 328 320 319 325 322 316 314 314 314 311 307 300 293 281 263 266 280 269 235 269 306 330 341 336 335 331 325 324 323 324 328 330 331 332 333 335 335
225 235 243 256 269 272 273 275 277 279 277 272 271 270 264 263 264 262 261 261 261 263 264 266 269 270 271 271 272 273 273 274 276 280 290 296 296 301 304 305 308 310 313 312 309 311 313 319 325 318 307 308 310 318 325 320 312 312 317 315 309 306 301 291 272 262 276 284 276 280 291 305 326 343 341 336 333 327 326 327 327 329 332 333 333 333 333 334
231 239 242 259 278 282 284 291 291 286 281 273 273 274 272 270 269 267 266 265 266 268 268 269 271 272 273 275 275 275 277 278 278 282 289 292 294 299 301 304 307 307 310 312 309 307 305 311 319 315 313 315 317 323 325 314 308 311 316 316 312 308 298 284 274 280 289 277 279 301 307 300 315 337 339 334 335 331 329 330 330 332 334 335 334 333 332 333
240 249 255 266 280 291 298 303 300 293 284 277 275 276 274 272 272 272 271 270 269 270 270 272 274 276 278 277 276 276 278 280 283 285 288 289 293 297 300 304 306 306 308 309 308 308 304 305 309 312 315 317 320 324 320 310 311 314 318 319 314 306 293 285 288 294 289 271 281 306 309 299 313 334 336 333 335 331 330 332 332 334 337 335 334 332 332 332
253 261 268 275 287 300 305 307 307 301 292 284 280 278 275 274 274 274 273 273 273 271 271 274 277 279 279 278 277 278 279 282 284 286 289 292 294 297 301 304 305 307 308 305 306 307 303 303 306 306 311 317 321 323 318 315 316 318 321 318 303 294 290 288 296 300 289 281 292 307 306 305 322 336 332 333 335 330 331 333 333 336 338 335 333 332 333 332
262 268 278 285 298 308 310 310 311 307 300 293 287 282 278 276 276 274 274 274 275 274 275 277 277 276 277 279 281 282 282 282 283 286 291 294 297 299 301 303 306 306 306 304 303 303 300 301 305 303 306 316 324 323 319 318 315 314 318 313 293 293 294 293 299 301 291 292 306 310 302 308 330 338 330 332 334 331 332 333 333 337 337 333 333 333 333 333
269 281 291 297 304 310 311 311 311 309 307 300 291 284 279 278 277 277 279 278 278 279 280 280 279 278 280 283 285 286 284 283 284 288 291 294 298 300 299 302 305 304 304 303 300 299 298 298 303 303 301 309 321 323 320 318 312 308 315 327 319 307 298 296 299 301 299 304 312 308 299 310 331 335 329 331 332 330 330 331 334 337 335 332 333 334 334 333
279 292 299 303 308 310 310 310 308 308 309 301 290 284 281 281 281 282 284 283 282 285 284 283 283 283 283 285 287 287 286 286 287 289 291 294 296 298 298 300 302 301 302 301 297 297 297 295 301 302 296 304 317 321 319 318 314 311 326 331 323 308 296 296 303 311 314 312 309 305 305 318 329 330 329 330 330 329 329 331 335 336 334 332 333 334 334 333